Location: Clay (historical)
(35.1476°N, 89.8179°W)
Time: 01:02:49
(UTC+00:00)

Cosmos 1802 Rocket - Pass Details

Date: 18 February 2026
Orbit: 954 x 1010 km, 82.9° (Epoch: 7 March)

Event Time Altitude Azimuth Distance (km) Brightness Sun altitude
Rises 12:14:24 0° 196° (SSW) 3,633 6.9 -6.4°
Reaches altitude 10° 12:16:55 10° 200° (SSW) 2,697 6.2 -5.8°
Maximum altitude 12:22:59 58° 279° (W) 1,133 4.1 -4.6°
Drops below altitude 10° 12:29:10 10° 358° (N) 2,750 6.2 -3.4°
Sets 12:31:47 0° 2° (N) 3,710 6.9 -2.9°
